This demonstration page uses our WeatherBlox Daily Observations layout. Learn more.

Left ArrowRight Arrow

41.55636, -103.73856

Hourly Observations for January 6, 2015

Temp ( °F °C ) Dew Point ( °F °C ) Humidity (%) Winds ( mph kmh ) Pressure ( in mb ) Visibility ( mi km ) Precip ( " mm )
12:53 am 00:53 Clear 23 -5 18 -7.8 81 81 Calm 30.39 1029 10 16 0.00 0.00
1:53 am 01:53 Clear 17 -8.3 14 -10 88 88 N 6 9 30.42 1030 10 16 0.00 0.00
2:53 am 02:53 Clear 17 -8.3 15 -9.4 92 92 Calm 30.40 1029 10 16 0.00 0.00
3:53 am 03:53 Clear 17 -8.3 14 -10 88 88 NNE 5 7 30.40 1030 10 16 0.00 0.00
4:53 am 04:53 Clear 16 -8.9 13 -10.6 88 88 ENE 9 15 30.40 1030 10 16 0.00 0.00
5:53 am 05:53 Clear 18 -7.8 14 -10 84 84 ENE 5 7 30.42 1030 10 16 0.00 0.00
6:53 am 06:53 Clear 15 -9.4 12 -11.1 88 88 Calm 30.43 1031 10 16 0.00 0.00
7:53 am 07:53 Sunny with Mist and Fog 13 -10.6 11 -11.7 92 92 Calm 30.45 1031 4 6 0.00 0.00
8:53 am 08:53 Sunny 16 -8.9 14 -10 92 92 Calm 30.43 1030 10 16 0.00 0.00
9:53 am 09:53 Sunny 22 -5.6 17 -8.3 82 82 N 3 6 30.41 1030 10 16 0.00 0.00
10:53 am 10:53 Sunny 26 -3.3 20 -6.7 78 78 WNW 3 6 30.37 1029 10 16 0.00 0.00
11:53 am 11:53 Sunny 28 -2.2 21 -6.1 75 75 NW 7 11 30.34 1027 10 16 0.00 0.00
12:53 pm 12:53 Sunny 31 -0.6 24 -4.4 76 76 NW 7 11 30.32 1027 10 16 0.00 0.00
1:53 pm 13:53 Sunny 36 2.2 27 -2.8 70 70 Calm 30.32 1027 10 16 0.00 0.00
2:53 pm 14:53 Cloudy 37 2.8 30 -1.1 76 76 WNW 5 7 30.34 1028 10 16 0.00 0.00
3:53 pm 15:53 Cloudy 36 2.2 30 -1.1 79 79 N 6 9 30.36 1028 10 16 0.00 0.00
4:53 pm 16:53 Cloudy 31 -0.6 27 -2.8 85 85 NE 18 30 30.43 1031 10 16 0.00 0.00
5:53 pm 17:53 Cloudy 20 -6.7 16 -8.9 85 85 NE 32 52 30.56 1035 10 16 0.00 0.00
6:53 pm 18:53 Cloudy 17 -8.3 12 -11.1 80 80 NE 20 31 30.69 1039 10 16 0.00 0.00
7:04 pm 19:04 Cloudy 18 -8 10 -12 73 73 VRB 5 7 30.83 1044 10 16 0.00 0.00
7:53 pm 19:53 Cloudy 15 -9.4 8 -13.3 74 74 NNE 14 22 30.78 1042 10 16 0.00 0.00
8:53 pm 20:53 Cloudy 13 -10.6 6 -14.4 74 74 NE 17 28 30.81 1043 10 16 0.00 0.00
9:53 pm 21:53 Cloudy 12 -11.1 5 -15 73 73 N 12 19 30.84 1044 10 16 0.00 0.03
10:53 pm 22:53 Cloudy 11 -11.7 4 -15.6 73 73 NNE 15 24 30.86 1045 10 16 0.00 0.00
11:53 pm 23:53 Cloudy 11 -11.7 4 -15.6 73 73 N 9 15 30.86 1045 10 16 0.00 0.00

Powered by AerisWeather